Precipitable_Water
0.36 0.36 0.37 0.38 0.38 0.38 0.37 0.36 0.43 0.46 0.50 0.57 0.65 0.80 1.12 1.52 1.65 1.68 1.68 1.59 1.40 1.34 1.24 1.23 1.29 1.16 1.11 1.16 1.13 1.13 1.06 1.05
0.38 0.38 0.39 0.39 0.39 0.38 0.39 0.37 0.36 0.40 0.43 0.45 0.51 0.59 0.82 1.18 1.49 1.73 1.72 1.72 1.43 1.36 1.26 1.23 1.26 1.14 1.10 1.15 1.18 1.09 1.07 1.13
0.35 0.38 0.41 0.40 0.41 0.42 0.44 0.44 0.44 0.44 0.43 0.44 0.50 0.57 0.68 0.91 1.25 1.49 1.57 1.61 1.59 1.40 1.28 1.24 1.19 1.15 1.19 1.18 1.17 1.08 1.13 1.18
0.35 0.37 0.40 0.41 0.42 0.44 0.47 0.48 0.50 0.53 0.54 0.49 0.47 0.53 0.58 0.69 0.92 1.26 1.53 1.66 1.75 1.46 1.26 1.24 1.24 1.20 1.15 1.15 1.14 1.09 0.99 1.11
0.37 0.38 0.40 0.42 0.43 0.48 0.49 0.51 0.53 0.58 0.62 0.55 0.50 0.41 0.42 0.54 0.72 1.01 1.34 1.56 1.68 1.64 1.34 1.24 1.17 1.20 1.16 1.15 1.15 1.11 1.07 0.95
0.37 0.40 0.42 0.44 0.46 0.47 0.49 0.51 0.52 0.55 0.60 0.62 0.58 0.50 0.48 0.54 0.68 0.89 1.13 1.44 1.58 1.77 1.57 1.32 1.17 1.18 1.14 1.12 1.11 1.12 1.13 1.05
0.40 0.43 0.44 0.45 0.49 0.49 0.49 0.50 0.52 0.58 0.61 0.63 0.58 0.53 0.50 0.49 0.60 0.81 0.94 1.39 1.50 1.67 1.71 1.48 1.35 1.22 1.17 1.11 1.10 1.12 1.13 1.13
0.40 0.41 0.43 0.47 0.47 0.49 0.52 0.56 0.57 0.57 0.58 0.63 0.60 0.58 0.59 0.59 0.70 0.94 0.91 1.27 1.31 1.32 1.75 1.61 1.47 1.38 1.25 1.23 1.21 1.24 1.24 1.26
0.41 0.43 0.47 0.48 0.48 0.49 0.53 0.56 0.56 0.60 0.62 0.57 0.59 0.62 0.64 0.69 0.78 0.81 1.04 1.29 1.22 1.32 1.31 1.54 1.39 1.38 1.44 1.38 1.37 1.42 1.49 1.49
0.43 0.46 0.48 0.49 0.49 0.51 0.52 0.55 0.60 0.64 0.69 0.70 0.64 0.65 0.69 0.75 0.78 0.69 0.95 1.11 1.30 1.31 1.27 1.35 1.30 1.29 1.28 1.58 1.57 1.59 1.57 1.51
0.46 0.48 0.49 0.51 0.52 0.55 0.55 0.58 0.62 0.64 0.68 0.72 0.71 0.70 0.74 0.78 0.79 0.67 1.02 1.04 1.13 1.27 1.23 1.32 1.27 1.19 1.20 1.47 1.47 1.49 1.48 1.48
0.47 0.49 0.52 0.53 0.55 0.57 0.58 0.60 0.63 0.62 0.67 0.70 0.71 0.70 0.80 0.81 0.77 0.68 0.83 1.06 1.01 1.13 1.20 1.20 1.21 1.26 1.30 1.33 1.25 1.25 1.27 1.25
0.49 0.51 0.52 0.53 0.55 0.56 0.59 0.62 0.62 0.64 0.67 0.67 0.72 0.75 0.81 0.84 0.81 0.76 0.80 0.96 1.06 1.08 1.06 1.08 1.12 1.15 1.19 1.20 1.19 1.22 1.18 1.14
0.50 0.52 0.52 0.53 0.53 0.56 0.59 0.61 0.62 0.64 0.66 0.70 0.72 0.72 0.72 0.78 0.83 0.81 0.82 0.88 0.92 0.99 1.00 1.01 1.06 1.08 1.08 1.07 1.07 1.12 1.11 1.06
0.48 0.50 0.52 0.52 0.52 0.51 0.56 0.61 0.63 0.61 0.64 0.68 0.70 0.74 0.74 0.73 0.78 0.80 0.82 0.86 0.84 0.87 0.90 0.92 0.96 0.98 0.99 0.99 0.96 0.97 0.97 0.97
0.39 0.43 0.46 0.48 0.47 0.46 0.47 0.50 0.56 0.61 0.63 0.65 0.67 0.69 0.72 0.73 0.68 0.73 0.73 0.72 0.71 0.76 0.81 0.84 0.87 0.88 0.88 0.90 0.89 0.88 0.87 0.86
0.33 0.34 0.34 0.34 0.35 0.37 0.40 0.41 0.40 0.41 0.42 0.48 0.53 0.55 0.54 0.55 0.58 0.58 0.60 0.59 0.59 0.58 0.58 0.61 0.63 0.66 0.70 0.71 0.73 0.73 0.73 0.76
0.26 0.25 0.26 0.27 0.27 0.28 0.28 0.31 0.32 0.35 0.34 0.32 0.33 0.35 0.36 0.40 0.39 0.39 0.38 0.40 0.41 0.39 0.39 0.39 0.39 0.42 0.43 0.45 0.47 0.49 0.49 0.53
0.22 0.21 0.22 0.24 0.25 0.26 0.25 0.26 0.26 0.26 0.26 0.26 0.27 0.27 0.27 0.28 0.28 0.28 0.29 0.29 0.28 0.27 0.27 0.26 0.26 0.27 0.28 0.28 0.29 0.30 0.31 0.31
Wind_Speed
36 39 42 44 45 45 45 46 46 45 46 45 45 43 43 44 46 45 44 42 41 38 35 33 31 29 27 26 24 23 21 19
38 41 42 43 44 46 47 47 48 48 48 48 48 47 46 46 46 47 48 45 44 42 39 35 34 32 30 28 26 24 23 22
39 40 41 43 44 46 47 48 48 48 49 50 51 51 50 49 48 47 50 49 47 45 43 40 38 35 33 31 29 26 25 23
39 39 40 42 43 41 40 41 43 46 48 50 52 54 53 52 50 48 48 50 49 48 46 45 42 39 36 35 33 30 28 27
38 37 37 38 39 36 33 32 34 35 40 44 48 53 56 54 53 50 50 51 51 52 49 48 47 44 41 37 35 34 31 30
34 34 36 38 37 33 32 34 35 36 37 39 43 48 53 55 53 52 50 50 53 53 53 51 49 47 44 42 39 36 35 32
31 33 36 36 35 32 31 32 33 34 33 35 37 41 48 52 54 52 49 48 50 54 57 54 49 47 45 43 41 39 37 35
30 32 35 33 31 30 31 31 31 28 29 30 33 35 40 46 50 48 45 41 43 47 43 53 48 47 46 44 42 40 38 36
29 31 30 31 29 30 30 28 26 25 22 21 24 27 31 40 44 47 41 40 40 38 19 36 41 39 43 45 44 41 39 36
26 28 28 29 28 28 26 25 29 25 20 17 15 18 23 32 39 44 35 39 35 38 34 30 37 36 33 42 45 39 38 35
24 26 27 26 26 24 24 25 27 22 16 8 7 9 15 25 31 37 27 33 30 29 30 19 26 28 43 17 22 24 27 27
22 23 24 22 24 24 23 24 24 26 12 10 4 6 8 18 23 30 30 17 24 18 20 29 29 26 24 23 21 23 25 27
19 20 22 21 22 23 23 22 21 26 14 15 19 16 17 15 17 20 23 20 16 15 15 17 15 22 22 19 20 20 21 23
16 18 20 21 22 20 21 22 21 21 20 17 18 16 11 10 12 13 17 13 14 8 9 9 11 13 15 16 19 22 22 23
14 16 19 19 22 21 20 20 19 22 19 19 20 17 20 14 11 10 9 8 8 9 8 7 10 8 10 11 14 17 20 23
12 13 15 17 20 21 20 20 20 21 20 20 19 18 20 17 11 10 8 4 1 5 2 3 5 9 11 14 15 18 22 25
10 11 13 15 17 19 20 19 19 20 21 21 19 18 18 17 14 12 9 7 5 3 2 6 7 9 11 14 17 19 21 24
7 9 10 12 13 16 17 18 19 19 19 19 19 19 19 19 17 14 10 9 8 5 4 5 7 10 11 12 13 15 16 17
4 6 8 10 12 13 14 15 16 18 19 20 20 19 19 17 17 16 12 10 9 9 8 8 8 10 12 13 14 15 15 16
Wind_Direction
303 301 299 295 292 286 282 275 270 265 261 258 256 252 250 246 245 240 236 231 231 232 231 231 231 233 233 234 236 238 240 243
306 305 303 300 296 290 283 278 272 266 260 257 255 252 250 246 244 242 237 233 231 232 231 231 231 232 233 233 235 237 240 241
311 310 308 305 301 295 287 280 274 268 261 256 252 250 247 246 245 245 241 234 230 230 231 231 231 232 232 232 234 237 239 239
314 313 311 310 308 302 295 286 279 271 263 257 251 248 246 243 242 242 239 237 233 231 231 231 231 231 231 234 235 235 239 240
317 316 316 316 314 308 301 294 289 279 269 261 254 247 244 242 241 241 239 238 234 231 231 230 230 231 232 233 234 236 238 241
319 320 319 319 318 312 304 299 294 286 276 265 257 249 241 240 238 239 239 239 235 233 229 229 229 230 232 234 234 236 238 240
320 323 323 322 321 316 312 309 302 293 281 270 259 251 242 238 235 235 235 237 235 236 229 226 226 227 230 233 235 236 238 239
323 326 327 327 327 326 322 315 314 305 288 272 259 253 243 233 229 225 228 232 231 240 224 217 222 226 229 231 234 235 235 238
327 329 331 333 331 329 328 326 322 316 311 287 262 252 240 228 221 218 225 228 229 240 264 209 222 227 230 232 232 232 232 236
332 334 336 338 338 338 337 335 332 321 312 306 276 251 236 221 216 212 224 226 234 235 248 221 214 225 242 234 228 227 230 235
338 340 342 344 347 351 352 350 354 345 336 328 315 257 224 211 207 204 212 224 230 231 222 237 225 238 241 259 202 223 230 240
344 347 351 354 358 0 358 360 4 8 17 26 56 52 164 182 187 196 205 219 223 229 234 234 247 244 243 232 238 237 245 249
351 356 -0 2 6 9 13 16 19 24 58 59 73 79 85 131 163 176 190 208 209 225 237 244 249 227 232 234 236 243 251 255
0 5 8 13 13 15 21 24 29 34 41 53 63 52 71 121 141 169 184 199 216 212 228 251 249 240 231 241 247 255 260 265
4 11 18 20 22 26 28 30 39 37 42 47 52 60 62 86 115 142 145 190 207 227 240 279 250 252 238 256 257 264 271 274
10 13 18 23 28 30 35 37 35 37 44 51 52 55 62 67 93 111 116 104 181 231 185 296 285 265 276 272 276 276 277 280
11 14 19 26 32 34 37 38 40 43 48 48 52 55 57 59 74 89 89 81 73 77 264 296 309 308 301 294 288 288 293 286
16 21 26 28 33 35 38 41 43 47 47 47 49 53 57 59 64 72 71 59 54 38 359 328 326 324 322 316 310 301 302 303
36 35 34 35 35 36 39 42 44 47 50 50 50 52 52 57 57 56 58 51 43 34 22 7 352 341 334 326 319 318 314 312